Location: Cicognara
(44.9500°N, 10.4667°E)
Time: 13:05:32
(UTC+00:00)

Cosmos 1184 Rocket - Pass Details

Date: 20 June 2021
Orbit: 399 x 413 km, 81.2° (Epoch: 02 August)

Event Time Altitude Azimuth Distance (km) Brightness Sun altitude
Exits shadow 22:30:09 49° 273° (W) 543 3.3 -20.7°
Maximum altitude 22:30:17 50° 283° (WNW) 540 3.4 -20.7°
Drops below altitude 10° 22:33:28 10° 0° (N) 1,500 6.7 -20.8°
Sets 22:35:33 0° 6° (N) 2,366 7.9 -20.9°
